[[{"header":{"parameterUnit":"m.s-1","parameterCategory":2,"la1":30.2991,"la2":30.254,"lo1":-89.0895,"lo2":-89.0444,"dy":0.0017,"dx":0.0017,"nx":28,"ny":28,"refTime":"2023-07-18T03:00:00:Z","depth":"0","parameterNumber":2,"parameterNumberName":"U-component_of_CURRENTS"},"data":[0,0,0,0,0,0,0,0,0,0,0,0,0,0,0,0,0,0,0,0,0,0,0,0,0,0,0,0,0,0,0,0,0,0,0,0,0,0,0,0,0,0,0,0,0,0,0,0,0,0,0,0,0,0,0,0,0,0,0.1782,0.1783,0,0.1893,0.1894,0.1895,0.1885,0.1883,0.1881,0.188,0.1991,0.1996,0.2,0,0,0,0,0,0,0,0,0,0,0,0,0,0.1603,0.1606,0.1781,0.1783,0.1784,0.1892,0.1894,0.1896,0.1885,0.1883,0.1881,0.1879,0.199,0.1995,0.2001,0,0,0,0,0,0,0,0,0,0,0,0,0,0.1695,0.1607,0.1781,0.1791,0.1793,0.1892,0.1894,0.1896,0.1886,0.1883,0.188,0.1878,0.1988,0.1995,0.2001,0.2099,0,0,0.2023,0.2026,0,0,0,0,0,0,0,0,0.1689,0.1701,0.1788,0.1791,0.1793,0.1871,0.1872,0.1964,0.1886,0.1852,0.188,0.1876,0.1952,0.1962,0.1991,0.2105,0.2109,0.2023,0.2028,0.2031,0.2033,0,0,0,0,0,0,0,0.1683,0.1697,0.1827,0.179,0.1793,0.1804,0.1814,0.1889,0.1917,0.1855,0.1854,0.1865,0.1953,0.1984,0.1993,0.2111,0.2023,0.2029,0.2034,0.2037,0.2597,0.2607,0,0,0,0,0,0,0.1669,0.1691,0.1823,0.183,0.1732,0.1809,0.182,0.185,0.1916,0.1923,0.1867,0.1864,0.1973,0.1985,0.1997,0.2246,0.2031,0.2037,0.2041,0.2587,0.2599,0.2611,0,0,0,0,0,0,0.1665,0.168,0.1819,0.176,0.1778,0.1815,0.1848,0.1853,0.1891,0.1926,0.1932,0.1899,0.1972,0.1987,0.2142,0.2245,0.204,0.2047,0.2574,0.2591,0.2605,0.2661,0,0,0,0,0,0,0.1659,0.1679,0.1715,0.176,0.1781,0.1912,0.1851,0.1857,0.1901,0.1898,0.1956,0.1963,0.1971,0.2133,0.2149,0.2251,0.2052,0.256,0.2581,0.26,0.2646,0.2677,0.2704,0,0,0,0,0,0.1653,0.1718,0.1716,0.1733,0.1824,0.1915,0.193,0.1945,0.1905,0.196,0.2026,0.1961,0.2273,0.2146,0.2163,0.2268,0.2551,0.2575,0.2599,0.2633,0.2671,0.2704,0,0,0,0,0,0,0.1665,0.1725,0.1723,0.1804,0.1866,0.1914,0.1967,0.1963,0.2054,0.2059,0.2063,0.2081,0.227,0.2302,0.216,0.2518,0.2417,0.2446,0.2438,0.2474,0.2503,0.2556,0.2058,0,0,0,0,0,0.1684,0.1751,0.1799,0.1873,0.1902,0.1934,0.1974,0.1991,0.2063,0.2096,0.2145,0.2252,0.2391,0.2446,0.2572,0.2731,0.2778,0.2841,0.287,0.2893,0.2969,0.3126,0.3171,0.269,0.269,0.2689,0,0,0.1713,0.1753,0.1793,0.1881,0.1923,0.2039,0.1954,0.2039,0.2155,0.2101,0.2284,0.2347,0.2469,0.2668,0.2757,0.269,0.3059,0.2923,0.2939,0.3005,0.3155,0.32,0.324,0.2706,0.2703,0.2701,0,0,0.1836,0.1837,0.1951,0.2009,0.2091,0.2123,0.215,0.2226,0.2275,0.2437,0.2471,0.2637,0.2775,0.2931,0.3012,0.3305,0.3214,0.331,0.3468,0.3616,0.3654,0.3687,0.3769,0.3809,0.3309,0.331,0.331,0,0.1864,0.2025,0.2001,0.2128,0.2201,0.2169,0.2321,0.2385,0.2512,0.2589,0.2521,0.2854,0.2942,0.3231,0.3342,0.3366,0.3376,0.3276,0.3639,0.3674,0.3707,0.3783,0.3826,0.3315,0.3315,0.3314,0.3313,0,0.2099,0.2216,0.2285,0.2438,0.2501,0.2628,0.2686,0.2769,0.2784,0.2852,0.3091,0.3214,0.3406,0.3469,0.3482,0.3792,0.3696,0.3639,0.35,0.3756,0.3823,0.3867,0.3323,0.3321,0.332,0.3318,0,0,0.224,0.2414,0.2458,0.2542,0.2678,0.2743,0.2924,0.3089,0.3178,0.3303,0.3463,0.3754,0.3746,0.3858,0.3893,0.4035,0.4273,0.3922,0.3927,0.3919,0.452,0.4361,0.4392,0.4195,0.4204,0.4212,0.4451,0,0.246,0.2718,0.2768,0.301,0.3136,0.314,0.3284,0.3401,0.346,0.3592,0.3738,0.3894,0.3908,0.3946,0.4128,0.4215,0.4398,0.4211,0.4356,0.4363,0.4118,0.4445,0.4324,0.452,0.4494,0.4501,0.4506,0,0.2747,0.286,0.312,0.3251,0.3301,0.341,0.3555,0.3678,0.3833,0.3863,0.4033,0.4069,0.4357,0.4268,0.4629,0.446,0.4567,0.4622,0.4629,0.4509,0.4291,0.4286,0.46,0.4503,0.4573,0.4568,0.4563,0,0.289,0.3128,0.3317,0.3379,0.3514,0.3589,0.3646,0.3774,0.3832,0.4008,0.4022,0.4325,0.44,0.4628,0.4755,0.4682,0.5055,0.4965,0.4963,0.4946,0.491,0.4875,0.5092,0.5315,0.5314,0.5314,0.5313,0,0.3139,0.3287,0.3367,0.3462,0.3586,0.3656,0.3771,0.384,0.394,0.4011,0.4144,0.4228,0.4477,0.466,0.4827,0.5016,0.5139,0.5101,0.5055,0.4925,0.489,0.4849,0.4806,0.5322,0.532,0.5319,0.5317,0,0.3265,0.3374,0.3523,0.3634,0.3652,0.3706,0.3735,0.3793,0.3882,0.3964,0.4002,0.4183,0.4394,0.4624,0.4956,0.5051,0.5168,0.5321,0.5109,0.5036,0.4891,0.4856,0.4914,0.4805,0.5392,0.539,0.5389,0,0.3358,0.3455,0.3548,0.3561,0.3592,0.3648,0.3662,0.3746,0.3774,0.3924,0.3954,0.4156,0.4271,0.4658,0.4907,0.52,0.5113,0.5222,0.515,0.497,0.49,0.4684,0.4573,0.5122,0.5118,0.5115,0.5113,0,0.3417,0.3431,0.3491,0.3523,0.3537,0.354,0.3564,0.3569,0.3669,0.3731,0.3818,0.3921,0.426,0.4475,0.4807,0.4988,0.4986,0.5166,0.5103,0.4864,0.4539,0.4374,0.4809,0.5088,0.5091,0.5092,0.5094,0.5095,0.3361,0.3376,0.3417,0.3436,0.3434,0.3396,0.3368,0.3399,0.3417,0.3482,0.3653,0.3766,0.4149,0.458,0.4681,0.4824,0.4812,0.4834,0.4854,0.4683,0.4461,0.4795,0.4913,0.4914,0.4916,0.4917,0.4918,0,0.3261,0.3294,0.3312,0.3305,0.3251,0.3298,0.3269,0.3231,0.321,0.3334,0.3414,0.3729,0.4005,0.4299,0.4663,0.46,0.4415,0.4519,0.4276,0.422,0.4674,0.454,0.4431,0.4431,0.4431,0.4432,0.4432,0.4432,0.3206,0.3207,0.3237,0.3129,0.3108,0.301,0.2978,0.2953,0.3004,0.3071,0.3201,0.3369,0.3824,0.4347,0.4488,0.4419,0.4182,0.4002,0.398,0.4382,0.4413,0.4442,0.4308,0.4152,0.4152,0.3373,0.3368,0.3364]},{"header":{"parameterUnit":"m.s-1","parameterCategory":2,"la1":30.2991,"la2":30.254,"lo1":-89.0895,"lo2":-89.0444,"dy":0.0017,"dx":0.0017,"nx":28,"ny":28,"refTime":"2023-07-18T03:00:00:Z","depth":"0","parameterNumber":3,"parameterNumberName":"V-component_of_CURRENTS"},"data":[0,0,0,0,0,0,0,0,0,0,0,0,0,0,0,0,0,0,0,0,0,0,0,0,0,0,0,0,0,0,0,0,0,0,0,0,0,0,0,0,0,0,0,0,0,0,0,0,0,0,0,0,0,0,0,0,0,0,0.0471,0.0472,0,0.0522,0.0522,0.0523,0.0543,0.0543,0.0542,0.0542,0.0559,0.056,0.056,0,0,0,0,0,0,0,0,0,0,0,0,0,0.0438,0.0438,0.0471,0.0472,0.0472,0.0522,0.0522,0.0523,0.0543,0.0543,0.0542,0.0542,0.0559,0.056,0.0561,0,0,0,0,0,0,0,0,0,0,0,0,0,0.0469,0.0439,0.0471,0.0486,0.0488,0.0521,0.0522,0.0524,0.0543,0.0543,0.0542,0.0542,0.0558,0.056,0.0561,0.0578,0,0,0.0564,0.0565,0,0,0,0,0,0,0,0,0.0467,0.047,0.0484,0.0485,0.0487,0.0523,0.0517,0.0539,0.0543,0.0525,0.0542,0.0541,0.0543,0.0545,0.056,0.0579,0.058,0.0564,0.0565,0.0566,0.0566,0,0,0,0,0,0,0,0.0465,0.0469,0.0494,0.0484,0.0486,0.0506,0.051,0.0522,0.0537,0.0526,0.0527,0.0529,0.0544,0.0559,0.056,0.058,0.0564,0.0565,0.0566,0.0567,0.0798,0.0803,0,0,0,0,0,0,0.0452,0.0466,0.0492,0.0495,0.0473,0.0507,0.0511,0.0514,0.0538,0.0541,0.053,0.053,0.0557,0.0559,0.0561,0.0725,0.0566,0.0567,0.0567,0.0793,0.0799,0.0805,0,0,0,0,0,0,0.0451,0.0454,0.049,0.048,0.0485,0.0507,0.0511,0.0515,0.0532,0.054,0.0543,0.0541,0.0557,0.0559,0.0617,0.072,0.0567,0.0568,0.0786,0.0795,0.0802,0.0962,0,0,0,0,0,0,0.045,0.0454,0.0467,0.0479,0.0485,0.0536,0.0512,0.0517,0.0532,0.0534,0.0551,0.0552,0.0556,0.0616,0.0619,0.0719,0.0569,0.0779,0.079,0.08,0.095,0.0975,0.0996,0,0,0,0,0,0.0449,0.048,0.0468,0.0471,0.0498,0.0538,0.0545,0.0559,0.0533,0.0566,0.0589,0.0552,0.0684,0.062,0.0622,0.0725,0.0774,0.0787,0.0799,0.094,0.097,0.0996,0,0,0,0,0,0,0.0469,0.0485,0.0472,0.0503,0.0524,0.0541,0.0568,0.0561,0.0601,0.0604,0.0593,0.06,0.0711,0.0689,0.0618,0.083,0.0734,0.0747,0.0841,0.0869,0.0892,0.0979,0.057,0,0,0,0,0,0.0477,0.051,0.0514,0.0542,0.0547,0.055,0.0567,0.058,0.0606,0.0622,0.0641,0.0684,0.0764,0.0786,0.0846,0.0921,0.0903,0.1002,0.1025,0.1045,0.1123,0.1177,0.1211,0.0845,0.0845,0.0845,0,0,0.0505,0.0504,0.0532,0.055,0.0558,0.0643,0.0561,0.0601,0.0704,0.0617,0.0754,0.0762,0.0807,0.0935,0.0981,0.0921,0.1127,0.106,0.1076,0.1146,0.1193,0.1229,0.126,0.0854,0.0852,0.0851,0,0,0.0593,0.0556,0.0631,0.0657,0.0679,0.0699,0.0709,0.074,0.0779,0.0879,0.0887,0.0973,0.1028,0.1133,0.1178,0.1362,0.1258,0.1346,0.1517,0.1567,0.1597,0.1623,0.1578,0.1599,0.1343,0.1344,0.1344,0,0.0613,0.0712,0.066,0.0739,0.0791,0.0734,0.085,0.0897,0.0959,0.1023,0.0953,0.1151,0.1167,0.1385,0.1458,0.1425,0.1371,0.1393,0.1594,0.1621,0.1645,0.1593,0.1615,0.1353,0.1352,0.1351,0.135,0,0.079,0.0861,0.0897,0.0995,0.1038,0.1116,0.116,0.1225,0.1232,0.1289,0.1459,0.1486,0.1606,0.1623,0.1594,0.1802,0.1675,0.1617,0.1513,0.1691,0.1624,0.1644,0.1366,0.1363,0.136,0.1358,0,0,0.0888,0.1,0.1029,0.1104,0.1179,0.1235,0.1393,0.1534,0.1651,0.1705,0.1871,0.202,0.1985,0.2043,0.2012,0.2059,0.2152,0.1904,0.1902,0.1841,0.2166,0.2062,0.207,0.2079,0.2085,0.209,0.2022,0,0.1055,0.1247,0.1275,0.1486,0.1586,0.1588,0.1741,0.1851,0.191,0.2048,0.2104,0.2236,0.2157,0.2182,0.2244,0.2193,0.2222,0.2172,0.2024,0.2021,0.1892,0.21,0.195,0.1879,0.204,0.2043,0.2045,0,0.1273,0.136,0.1578,0.1723,0.1766,0.1881,0.2067,0.2195,0.2357,0.2393,0.2518,0.251,0.2661,0.251,0.2566,0.2505,0.2385,0.2308,0.2301,0.2188,0.1959,0.1745,0.1907,0.1581,0.2074,0.2072,0.207,0,0.1405,0.1596,0.1766,0.182,0.197,0.2066,0.2152,0.2312,0.2425,0.2599,0.2664,0.2808,0.2848,0.2802,0.2651,0.2594,0.262,0.2513,0.2313,0.2296,0.2152,0.2115,0.1988,0.2564,0.2564,0.2564,0.2564,0,0.1594,0.1737,0.183,0.192,0.2104,0.2173,0.2375,0.2471,0.2634,0.2789,0.2833,0.2953,0.2913,0.2894,0.2744,0.2602,0.2695,0.2425,0.233,0.2193,0.2164,0.1856,0.1702,0.2561,0.2562,0.2563,0.2563,0,0.1726,0.1805,0.1976,0.212,0.2164,0.2287,0.244,0.2581,0.2717,0.2909,0.2959,0.3078,0.3075,0.2972,0.2878,0.2707,0.239,0.2476,0.2277,0.2166,0.1707,0.1569,0.153,0.1357,0.2298,0.2296,0.2294,0,0.1829,0.1924,0.2065,0.2129,0.2186,0.2344,0.2447,0.2605,0.2736,0.2979,0.3072,0.3145,0.3211,0.3039,0.2755,0.2506,0.2289,0.2178,0.2122,0.1742,0.1518,0.1507,0.1362,0.1935,0.1931,0.1927,0.1924,0,0.1962,0.1983,0.2074,0.2197,0.2302,0.2438,0.2587,0.2693,0.2894,0.3041,0.3221,0.33,0.3159,0.2902,0.2566,0.236,0.1934,0.2094,0.1784,0.1351,0.1256,0.1016,0.1837,0.1891,0.1894,0.1896,0.1898,0.19,0.2008,0.2067,0.2145,0.2258,0.2379,0.2515,0.261,0.2762,0.2952,0.3174,0.3276,0.3392,0.3032,0.259,0.222,0.1494,0.1668,0.1298,0.1189,0.1236,0.1033,0.1764,0.1666,0.1668,0.167,0.1671,0.1673,0,0.2034,0.2084,0.2199,0.2327,0.2442,0.2508,0.2695,0.2789,0.2957,0.318,0.333,0.3241,0.2636,0.2091,0.1187,0.0675,0.0512,0.0431,0.0339,0.0252,0.0942,0.0881,0.0509,0.0509,0.0509,0.051,0.051,0.051,0.2042,0.2118,0.2173,0.2349,0.2438,0.2586,0.2674,0.2819,0.299,0.3204,0.332,0.3473,0.3101,0.1419,0.0216,-0.0107,-0.0478,-0.0488,-0.061,-0.0246,-0.0175,-0.0107,-0.02,-0.0793,-0.0795,-0.1292,-0.1298,-0.1303]}],[{"header":{"parameterUnit":"m.s-1","parameterCategory":2,"la1":30.2991,"la2":30.254,"lo1":-89.0895,"lo2":-89.0444,"dy":0.0017,"dx":0.0017,"nx":28,"ny":28,"refTime":"2023-07-18T03:00:00:Z","depth":"2","parameterNumber":2,"parameterNumberName":"U-component_of_CURRENTS"},"data":[0,0,0,0,0,0,0,0,0,0,0,0,0,0,0,0,0,0,0,0,0,0,0,0,0,0,0,0,0,0,0,0,0,0,0,0,0,0,0,0,0,0,0,0,0,0,0,0,0,0,0,0,0,0,0,0,0,0,0.1375,0.1375,0,0.1399,0.1399,0.14,0.1413,0.1413,0.1413,0.1413,0.143,0.143,0.1431,0,0,0,0,0,0,0,0,0,0,0,0,0,0.1351,0.1351,0.1375,0.1375,0.1375,0.1399,0.1399,0.14,0.1413,0.1413,0.1413,0.1413,0.143,0.143,0.1431,0,0,0,0,0,0,0,0,0,0,0,0,0,0.1367,0.1351,0.1375,0.1384,0.1386,0.1399,0.1399,0.14,0.1413,0.1413,0.1413,0.1413,0.1429,0.143,0.1431,0.1435,0,0,0.1433,0.1433,0,0,0,0,0,0,0,0,0.1366,0.1368,0.1383,0.1384,0.1385,0.1403,0.1397,0.1411,0.1413,0.1403,0.1413,0.1413,0.142,0.1421,0.1426,0.1435,0.1436,0.1433,0.1433,0.1434,0.1434,0,0,0,0,0,0,0,0.1365,0.1367,0.1385,0.1383,0.1384,0.1392,0.1394,0.14,0.1411,0.1404,0.1405,0.1407,0.1421,0.1426,0.1427,0.1436,0.1433,0.1433,0.1434,0.1434,0.1531,0.1533,0,0,0,0,0,0,0.1361,0.1366,0.1384,0.1385,0.1375,0.1392,0.1395,0.1397,0.1411,0.1413,0.1407,0.1408,0.1425,0.1426,0.1427,0.1511,0.1434,0.1434,0.1435,0.1528,0.1531,0.1533,0,0,0,0,0,0,0.136,0.1362,0.1383,0.1376,0.1379,0.1392,0.1395,0.1398,0.1408,0.1414,0.1416,0.1415,0.1425,0.1427,0.1453,0.1508,0.1434,0.1435,0.1526,0.1529,0.1532,0.1627,0,0,0,0,0,0,0.136,0.1362,0.1363,0.1376,0.1379,0.1401,0.1395,0.1398,0.1409,0.141,0.1421,0.1423,0.1425,0.1452,0.1454,0.1508,0.1436,0.1523,0.1527,0.1531,0.1621,0.1633,0.1643,0,0,0,0,0,0.1359,0.1364,0.1363,0.1365,0.138,0.1402,0.1405,0.1414,0.1409,0.1421,0.1435,0.1422,0.148,0.1454,0.1455,0.1511,0.1521,0.1526,0.1531,0.1616,0.163,0.1643,0,0,0,0,0,0,0.1354,0.1366,0.1366,0.1373,0.1389,0.1404,0.1413,0.1416,0.1435,0.1437,0.1439,0.1442,0.149,0.1482,0.1454,0.1552,0.1503,0.1508,0.1567,0.1581,0.1592,0.1624,0.1436,0,0,0,0,0,0.1353,0.136,0.1374,0.1381,0.1389,0.14,0.1408,0.1417,0.1433,0.1441,0.1456,0.1477,0.1511,0.1528,0.1547,0.159,0.1584,0.1631,0.1642,0.1651,0.1679,0.1718,0.1735,0.1549,0.1549,0.1549,0,0,0.1352,0.136,0.1363,0.138,0.1391,0.1422,0.1406,0.1425,0.1461,0.144,0.1494,0.1508,0.1528,0.1589,0.161,0.159,0.1696,0.1657,0.1665,0.1689,0.1725,0.1743,0.1759,0.1553,0.1552,0.1551,0,0,0.1363,0.1363,0.1377,0.1397,0.1417,0.1433,0.144,0.1465,0.1487,0.1532,0.1541,0.1592,0.1623,0.1671,0.1694,0.1774,0.1748,0.1777,0.1868,0.1905,0.1921,0.1934,0.1928,0.1941,0.179,0.179,0.179,0,0.1355,0.1382,0.1385,0.1413,0.1434,0.1442,0.1474,0.1505,0.1541,0.1576,0.156,0.1671,0.1674,0.1785,0.182,0.1803,0.1801,0.1814,0.192,0.1934,0.1946,0.1936,0.1949,0.1795,0.1795,0.1794,0.1794,0,0.1391,0.1412,0.1424,0.1465,0.149,0.1516,0.1558,0.1593,0.1616,0.1658,0.176,0.1793,0.1868,0.1881,0.1876,0.1989,0.1949,0.1922,0.1885,0.1971,0.1954,0.1966,0.1803,0.1801,0.1799,0.1798,0,0,0.1386,0.1432,0.1444,0.1462,0.1518,0.1538,0.161,0.168,0.1733,0.1804,0.1891,0.1986,0.2023,0.2053,0.2072,0.2115,0.2184,0.2067,0.2066,0.206,0.2241,0.2217,0.2225,0.2176,0.2179,0.2181,0.2185,0,0.1413,0.1451,0.1488,0.1545,0.1567,0.161,0.1676,0.1746,0.1804,0.189,0.1981,0.2063,0.2086,0.2123,0.219,0.2181,0.2224,0.2184,0.2162,0.2161,0.2129,0.2243,0.2082,0.2074,0.2196,0.2197,0.2199,0,0.1437,0.1471,0.1509,0.157,0.1588,0.1633,0.1726,0.1788,0.1916,0.1969,0.2104,0.2159,0.2289,0.2256,0.2361,0.2334,0.2314,0.2296,0.2295,0.2256,0.2161,0.2014,0.209,0.2217,0.2216,0.2215,0.2213,0,0.1405,0.1478,0.15,0.1524,0.1608,0.1647,0.1699,0.1813,0.1878,0.2022,0.2081,0.2252,0.2315,0.237,0.239,0.2369,0.2451,0.24,0.2365,0.2359,0.2214,0.2192,0.2464,0.2464,0.2464,0.2464,0.2464,0,0.1397,0.1417,0.1485,0.1504,0.1562,0.1629,0.1708,0.1781,0.1911,0.201,0.2129,0.2237,0.2344,0.2414,0.242,0.2455,0.2487,0.2418,0.2387,0.2239,0.222,0.2336,0.2322,0.2464,0.2464,0.2464,0.2464,0,0.1325,0.1367,0.1402,0.1501,0.1534,0.1569,0.1689,0.1751,0.1872,0.2001,0.2052,0.2227,0.2346,0.2426,0.2485,0.2472,0.2493,0.2478,0.2288,0.2238,0.2358,0.2348,0.2452,0.2451,0.2451,0.2451,0.2451,0,0.1267,0.128,0.1377,0.1408,0.1449,0.1523,0.1578,0.1714,0.1789,0.2005,0.2061,0.2224,0.2352,0.2447,0.2456,0.248,0.2515,0.2307,0.2263,0.2413,0.2371,0.2361,0.2352,0.2078,0.2075,0.2072,0.207,0,0.1188,0.1224,0.1267,0.1336,0.1391,0.1458,0.1551,0.1608,0.1787,0.1902,0.2081,0.2196,0.2333,0.2337,0.2362,0.2337,0.2304,0.2256,0.2478,0.2123,0.2067,0.2023,0.2025,0.2047,0.2049,0.2051,0.2052,0.2053,0.1118,0.1134,0.1202,0.1259,0.1328,0.1394,0.1429,0.1545,0.1663,0.1824,0.1996,0.209,0.2151,0.2132,0.2118,0.2093,0.2219,0.2112,0.2117,0.2126,0.21,0.2049,0.2017,0.2019,0.2021,0.2023,0.2024,0,0.1029,0.1078,0.1125,0.1201,0.1244,0.1318,0.1414,0.1441,0.1549,0.1697,0.1843,0.1733,0.1786,0.186,0.1808,0.1822,0.1758,0.1755,0.1675,0.17,0.1722,0.1672,0.1478,0.1476,0.1474,0.1473,0,0,0.0987,0.1011,0.1051,0.1104,0.1168,0.1216,0.126,0.1309,0.1388,0.1422,0.1459,0.1632,0.1757,0.1552,0.158,0.1544,0.1587,0.1474,0.1915,0.1843,0.1862,0.1939,0.1893,0,0,0,0,0]},{"header":{"parameterUnit":"m.s-1","parameterCategory":2,"la1":30.2991,"la2":30.254,"lo1":-89.0895,"lo2":-89.0444,"dy":0.0017,"dx":0.0017,"nx":28,"ny":28,"refTime":"2023-07-18T03:00:00:Z","depth":"2","parameterNumber":3,"parameterNumberName":"V-component_of_CURRENTS"},"data":[0,0,0,0,0,0,0,0,0,0,0,0,0,0,0,0,0,0,0,0,0,0,0,0,0,0,0,0,0,0,0,0,0,0,0,0,0,0,0,0,0,0,0,0,0,0,0,0,0,0,0,0,0,0,0,0,0,0,-0.1094,-0.1093,0,-0.1049,-0.1048,-0.1047,-0.1014,-0.1014,-0.1015,-0.1015,-0.0945,-0.0943,-0.0941,0,0,0,0,0,0,0,0,0,0,0,0,0,-0.1114,-0.1114,-0.1094,-0.1093,-0.1093,-0.1049,-0.1048,-0.1047,-0.1014,-0.1014,-0.1015,-0.1015,-0.0945,-0.0943,-0.0941,0,0,0,0,0,0,0,0,0,0,0,0,0,-0.1087,-0.1114,-0.1094,-0.1075,-0.1073,-0.1049,-0.1048,-0.1047,-0.1014,-0.1014,-0.1015,-0.1015,-0.0946,-0.0943,-0.094,-0.0919,0,0,-0.0931,-0.093,0,0,0,0,0,0,0,0,-0.1089,-0.1086,-0.1078,-0.1076,-0.1074,-0.1041,-0.103,-0.1004,-0.1014,-0.1032,-0.1015,-0.1015,-0.0977,-0.0972,-0.0957,-0.0916,-0.0913,-0.0931,-0.0929,-0.0928,-0.0927,0,0,0,0,0,0,0,-0.1091,-0.1088,-0.1072,-0.1077,-0.1075,-0.1056,-0.1052,-0.1024,-0.1001,-0.1031,-0.1029,-0.1031,-0.0975,-0.096,-0.0955,-0.0912,-0.0931,-0.0929,-0.0927,-0.0926,-0.0853,-0.0853,0,0,0,0,0,0,-0.1106,-0.109,-0.1073,-0.1071,-0.1087,-0.1056,-0.1052,-0.1048,-0.1001,-0.0996,-0.1031,-0.1029,-0.0965,-0.0959,-0.0953,-0.0911,-0.0928,-0.0925,-0.0924,-0.0853,-0.0853,-0.0853,0,0,0,0,0,0,-0.1107,-0.1105,-0.1075,-0.1083,-0.1078,-0.1056,-0.1052,-0.1047,-0.1032,-0.1003,-0.0996,-0.1021,-0.0965,-0.0957,-0.0929,-0.0908,-0.0924,-0.0921,-0.0853,-0.0853,-0.0853,-0.0836,0,0,0,0,0,0,-0.1107,-0.1105,-0.1102,-0.1084,-0.1078,-0.1054,-0.1052,-0.1046,-0.1035,-0.1032,-0.0992,-0.0986,-0.0965,-0.0934,-0.0926,-0.0905,-0.0919,-0.0854,-0.0853,-0.0853,-0.0836,-0.0835,-0.0833,0,0,0,0,0,-0.1108,-0.1098,-0.1102,-0.11,-0.1076,-0.1054,-0.1048,-0.1031,-0.1034,-0.1019,-0.1001,-0.0987,-0.0926,-0.0931,-0.0922,-0.0899,-0.0854,-0.0853,-0.0853,-0.0837,-0.0835,-0.0833,0,0,0,0,0,0,-0.1097,-0.1093,-0.1097,-0.1085,-0.1072,-0.105,-0.1035,-0.1032,-0.1005,-0.1002,-0.0981,-0.0973,-0.0943,-0.0928,-0.0934,-0.0881,-0.0889,-0.0887,-0.088,-0.0878,-0.0876,-0.0852,-0.0917,0,0,0,0,0,-0.1098,-0.1094,-0.1085,-0.1076,-0.1069,-0.1055,-0.1045,-0.1034,-0.1014,-0.1002,-0.0977,-0.0954,-0.0934,-0.0913,-0.0892,-0.0856,-0.0876,-0.0839,-0.0838,-0.0836,-0.0812,-0.0856,-0.0857,-0.0852,-0.0852,-0.0852,0,0,-0.1094,-0.1091,-0.1089,-0.1074,-0.1062,-0.104,-0.1047,-0.1026,-0.1004,-0.0998,-0.0955,-0.0948,-0.0927,-0.0891,-0.0876,-0.0874,-0.0851,-0.0836,-0.0835,-0.0811,-0.0856,-0.0856,-0.0857,-0.0851,-0.0851,-0.0851,0,0,-0.1078,-0.1078,-0.1067,-0.1053,-0.1039,-0.1027,-0.1025,-0.1,-0.0983,-0.0948,-0.0947,-0.093,-0.0884,-0.0868,-0.0856,-0.0834,-0.085,-0.0829,-0.0786,-0.083,-0.0831,-0.0832,-0.0872,-0.0876,-0.0819,-0.0819,-0.0819,0,-0.1069,-0.1056,-0.1058,-0.1038,-0.1022,-0.1023,-0.0996,-0.0979,-0.0947,-0.0922,-0.093,-0.0875,-0.087,-0.0829,-0.0823,-0.0828,-0.0856,-0.0794,-0.0829,-0.083,-0.0831,-0.0872,-0.0877,-0.0818,-0.0818,-0.0818,-0.0818,0,-0.1048,-0.103,-0.1018,-0.0997,-0.0979,-0.0955,-0.0937,-0.0915,-0.0901,-0.0875,-0.0831,-0.0827,-0.0783,-0.0795,-0.0797,-0.079,-0.0811,-0.0832,-0.0833,-0.083,-0.0874,-0.088,-0.0817,-0.0817,-0.0817,-0.0818,0,0,-0.1017,-0.1009,-0.0999,-0.0975,-0.0952,-0.0926,-0.0898,-0.0855,-0.0819,-0.0793,-0.0744,-0.0727,-0.0711,-0.0698,-0.0708,-0.0747,-0.0798,-0.0784,-0.0786,-0.0823,-0.0895,-0.0845,-0.0847,-0.0832,-0.0832,-0.0833,-0.0928,0,-0.0989,-0.0963,-0.0959,-0.0902,-0.0874,-0.0862,-0.0829,-0.079,-0.0761,-0.0713,-0.0704,-0.0658,-0.0677,-0.0657,-0.0693,-0.0773,-0.0809,-0.0769,-0.0891,-0.0894,-0.085,-0.0849,-0.08,-0.0874,-0.0934,-0.0935,-0.0935,0,-0.0963,-0.0932,-0.0899,-0.0843,-0.0828,-0.0793,-0.073,-0.0699,-0.0648,-0.0624,-0.0578,-0.0563,-0.0569,-0.0608,-0.0713,-0.0688,-0.0772,-0.085,-0.0856,-0.0809,-0.0853,-0.0884,-0.0883,-0.0945,-0.0944,-0.0944,-0.0943,0,-0.0938,-0.0888,-0.0862,-0.0842,-0.0782,-0.0746,-0.0711,-0.0658,-0.061,-0.0559,-0.052,-0.0515,-0.051,-0.0611,-0.072,-0.0727,-0.0868,-0.0903,-0.0934,-0.0932,-0.0909,-0.0903,-0.0982,-0.0982,-0.0982,-0.0981,-0.0981,0,-0.0914,-0.087,-0.0841,-0.0803,-0.0724,-0.0702,-0.0616,-0.0589,-0.053,-0.0444,-0.0455,-0.0407,-0.0516,-0.0582,-0.0706,-0.0819,-0.0851,-0.0912,-0.0945,-0.0902,-0.0894,-0.0965,-0.0961,-0.0985,-0.0984,-0.0983,-0.0983,0,-0.0884,-0.089,-0.0814,-0.0738,-0.071,-0.0644,-0.0549,-0.0482,-0.0456,-0.0355,-0.0329,-0.0337,-0.0415,-0.0534,-0.0711,-0.0785,-0.0923,-0.0959,-0.0889,-0.0909,-0.0966,-0.0961,-0.1001,-0.1,-0.0999,-0.0998,-0.0997,0,-0.0879,-0.0842,-0.0753,-0.0698,-0.0651,-0.056,-0.049,-0.044,-0.0362,-0.0298,-0.024,-0.0278,-0.0256,-0.0488,-0.0648,-0.083,-0.0896,-0.0907,-0.0895,-0.0935,-0.0965,-0.0961,-0.0958,-0.0882,-0.088,-0.0879,-0.0878,0,-0.0794,-0.0773,-0.0709,-0.0612,-0.0527,-0.0427,-0.0323,-0.0259,-0.0182,-0.0109,-0.0026,-0.0015,-0.0185,-0.0326,-0.0568,-0.0697,-0.0868,-0.0882,-0.0965,-0.086,-0.0824,-0.0852,-0.0853,-0.0866,-0.0867,-0.0868,-0.0869,-0.0869,-0.0718,-0.0664,-0.0598,-0.0497,-0.0405,-0.0282,-0.0173,-0.0075,0.0051,0.02,0.0158,0.0204,-0.0026,-0.0268,-0.0497,-0.0726,-0.0755,-0.0842,-0.0846,-0.0852,-0.0796,-0.0757,-0.0779,-0.0779,-0.078,-0.078,-0.0781,0,-0.0608,-0.0567,-0.0479,-0.0351,-0.0227,-0.0198,-0.0041,0.0068,0.0241,0.0345,0.0441,0.03,0.0119,-0.0149,-0.0456,-0.0662,-0.0696,-0.0734,-0.0744,-0.0754,-0.0764,-0.0704,-0.0662,-0.0662,-0.0662,-0.0662,0,0,-0.0544,-0.0452,-0.0416,-0.0205,-0.0105,0.0094,0.02,0.0324,0.0421,0.0541,0.0598,0.0586,0.0227,0.0035,-0.0281,-0.0462,-0.0552,-0.0491,-0.0567,-0.0554,-0.056,-0.0812,-0.0729,0,0,0,0,0]}],[{"header":{"parameterUnit":"m.s-1","parameterCategory":2,"la1":30.2991,"la2":30.254,"lo1":-89.0895,"lo2":-89.0444,"dy":0.0017,"dx":0.0017,"nx":28,"ny":28,"refTime":"2023-07-18T03:00:00:Z","depth":"4","parameterNumber":2,"parameterNumberName":"U-component_of_CURRENTS"},"data":[0,0,0,0,0,0,0,0,0,0,0,0,0,0,0,0,0,0,0,0,0,0,0,0,0,0,0,0,0,0,0,0,0,0,0,0,0,0,0,0,0,0,0,0,0,0,0,0,0,0,0,0,0,0,0,0,0,0,0.0655,0.0656,0,0.07,0.0699,0.0699,0.0782,0.0784,0.0787,0.0789,0.0851,0.0851,0.085,0,0,0,0,0,0,0,0,0,0,0,0,0,0.0556,0.0557,0.0654,0.0656,0.0658,0.07,0.0699,0.0699,0.0781,0.0785,0.0788,0.0791,0.0852,0.0851,0.085,0,0,0,0,0,0,0,0,0,0,0,0,0,0.059,0.0558,0.0654,0.0712,0.0718,0.07,0.0699,0.0699,0.0781,0.0785,0.0789,0.0792,0.0852,0.0851,0.085,0.0765,0,0,0.0846,0.0846,0,0,0,0,0,0,0,0,0.0588,0.0592,0.0702,0.0708,0.0715,0.0749,0.0688,0.0726,0.078,0.0745,0.079,0.0794,0.0823,0.0824,0.0808,0.0768,0.0771,0.0846,0.0845,0.0845,0.0845,0,0,0,0,0,0,0,0.0585,0.059,0.0661,0.0703,0.0712,0.0708,0.0716,0.0694,0.0754,0.0749,0.0758,0.0779,0.0826,0.0809,0.0811,0.0771,0.0846,0.0845,0.0844,0.0844,0.0895,0.0897,0,0,0,0,0,0,0.0602,0.0588,0.066,0.0664,0.0672,0.0707,0.0716,0.0725,0.0754,0.0765,0.0775,0.0783,0.0809,0.0812,0.0813,0.0886,0.0845,0.0844,0.0843,0.0893,0.0896,0.0898,0,0,0,0,0,0,0.0599,0.0607,0.0659,0.0636,0.0644,0.0707,0.0715,0.0724,0.0758,0.0776,0.0786,0.0807,0.0812,0.0815,0.0873,0.0883,0.0843,0.0842,0.0891,0.0894,0.0897,0.0921,0,0,0,0,0,0,0.0595,0.0605,0.062,0.0637,0.0647,0.068,0.0712,0.0723,0.0767,0.0778,0.0804,0.0812,0.0816,0.0875,0.0872,0.0881,0.0841,0.0888,0.0892,0.0896,0.0917,0.0924,0.093,0,0,0,0,0,0.0591,0.0625,0.062,0.063,0.0664,0.0681,0.0684,0.0734,0.0765,0.0776,0.0831,0.0814,0.0897,0.0876,0.0871,0.088,0.0886,0.0891,0.0896,0.0915,0.0923,0.093,0,0,0,0,0,0,0.0603,0.0636,0.0633,0.0676,0.0684,0.0701,0.0729,0.0746,0.0787,0.0818,0.0831,0.0842,0.0892,0.089,0.0866,0.0913,0.089,0.0894,0.0906,0.0914,0.092,0.0921,0.084,0,0,0,0,0,0.0602,0.0633,0.0645,0.0678,0.0684,0.0698,0.0716,0.0744,0.0782,0.0805,0.0838,0.0875,0.0892,0.0914,0.0927,0.0941,0.0938,0.095,0.0957,0.0962,0.0965,0.0981,0.0988,0.0913,0.0913,0.0913,0,0,0.062,0.0641,0.0661,0.0681,0.069,0.07,0.0718,0.0759,0.0783,0.0801,0.087,0.0893,0.0904,0.0939,0.096,0.0948,0.0985,0.0968,0.0971,0.0972,0.0987,0.0993,0.1,0.0916,0.0916,0.0915,0,0,0.0641,0.0677,0.0685,0.0701,0.0727,0.0734,0.0752,0.0785,0.082,0.0868,0.0897,0.0945,0.0973,0.0989,0.0993,0.1039,0.1015,0.1045,0.1074,0.109,0.1095,0.11,0.1108,0.1113,0.105,0.105,0.105,0,0.0645,0.0666,0.0692,0.07,0.0729,0.0753,0.0764,0.0787,0.0847,0.0877,0.0911,0.098,0.0991,0.1017,0.105,0.1048,0.1057,0.1036,0.1095,0.11,0.1104,0.1111,0.1116,0.1052,0.1052,0.1052,0.1051,0,0.0649,0.0683,0.07,0.0713,0.074,0.077,0.0801,0.0846,0.0898,0.0922,0.099,0.1021,0.1068,0.1071,0.1074,0.1109,0.1105,0.1095,0.1066,0.1112,0.1118,0.1123,0.1054,0.1054,0.1053,0.1053,0,0,0.0616,0.068,0.0692,0.0705,0.076,0.0777,0.0834,0.0871,0.0922,0.0979,0.1035,0.1074,0.1108,0.1118,0.1127,0.1142,0.118,0.1141,0.1141,0.1133,0.1218,0.1191,0.1193,0.1182,0.1183,0.1184,0.1209,0,0.0598,0.0623,0.067,0.0713,0.0727,0.0794,0.0843,0.0897,0.096,0.1026,0.1057,0.1115,0.1117,0.1156,0.1171,0.1182,0.1196,0.1174,0.1189,0.119,0.1146,0.1199,0.1188,0.1213,0.1214,0.1215,0.1215,0,0.057,0.0601,0.0635,0.0717,0.0731,0.0773,0.0872,0.0914,0.1003,0.1062,0.1126,0.1164,0.1209,0.1204,0.1242,0.1234,0.1235,0.1232,0.1233,0.1201,0.1172,0.1159,0.1224,0.1223,0.1223,0.1222,0.1222,0,0.0511,0.058,0.0613,0.0643,0.0731,0.0781,0.0831,0.0932,0.0988,0.1089,0.1157,0.1208,0.1262,0.1267,0.1297,0.1276,0.133,0.1292,0.126,0.1257,0.1259,0.1254,0.1309,0.1309,0.1309,0.1309,0.1309,0,0.0473,0.05,0.0601,0.0618,0.0683,0.0757,0.0844,0.0908,0.102,0.1085,0.1171,0.1237,0.1286,0.1332,0.1319,0.1324,0.1353,0.1276,0.1268,0.1271,0.1267,0.1262,0.1257,0.131,0.1309,0.1309,0.1309,0,0.0401,0.0461,0.0499,0.0608,0.0652,0.0697,0.0841,0.0897,0.1021,0.1113,0.1152,0.1278,0.1345,0.1383,0.1407,0.1366,0.1357,0.1346,0.1366,0.1357,0.1259,0.1255,0.1293,0.1292,0.1292,0.1291,0.1291,0,0.0365,0.0376,0.0481,0.0526,0.0584,0.068,0.0745,0.0876,0.0934,0.1125,0.1143,0.1282,0.1351,0.1362,0.1404,0.1396,0.1376,0.1359,0.1287,0.1272,0.1261,0.1257,0.1253,0.129,0.129,0.129,0.129,0,0.0294,0.0334,0.0373,0.0463,0.0538,0.0615,0.0712,0.0758,0.0906,0.103,0.1131,0.1205,0.129,0.1326,0.1363,0.134,0.136,0.1353,0.1352,0.1284,0.1269,0.1257,0.1254,0.1288,0.1288,0.1288,0.1288,0,0.0246,0.0256,0.0319,0.0399,0.0484,0.0539,0.06,0.0693,0.0775,0.0977,0.1006,0.1155,0.1269,0.13,0.1317,0.1325,0.1283,0.1213,0.1219,0.1221,0.1193,0.1163,0.1153,0,0,0,0,0,0.0202,0.0206,0.0262,0.0336,0.0418,0.0475,0.0578,0.0644,0.0788,0.0824,0.0923,0.1001,0.1103,0.1173,0.1165,0.1273,0.1273,0.1257,0.1189,0.1278,0.128,0.1256,0,0,0,0,0,0,0.0168,0.0196,0.0226,0.0282,0.0332,0.0406,0.0472,0.0562,0.0592,0.0749,0.0797,0.0933,0.1023,0.1092,0.1142,0.1164,0.1099,0.1349,0.1346,0.1276,0.1278,0.128,0.1256,0,0,0,0,0]},{"header":{"parameterUnit":"m.s-1","parameterCategory":2,"la1":30.2991,"la2":30.254,"lo1":-89.0895,"lo2":-89.0444,"dy":0.0017,"dx":0.0017,"nx":28,"ny":28,"refTime":"2023-07-18T03:00:00:Z","depth":"4","parameterNumber":3,"parameterNumberName":"V-component_of_CURRENTS"},"data":[0,0,0,0,0,0,0,0,0,0,0,0,0,0,0,0,0,0,0,0,0,0,0,0,0,0,0,0,0,0,0,0,0,0,0,0,0,0,0,0,0,0,0,0,0,0,0,0,0,0,0,0,0,0,0,0,0,0,0.004,0.004,0,0.0004,0.0003,0.0003,-0.0077,-0.0078,-0.008,-0.0082,-0.0177,-0.0178,-0.0179,0,0,0,0,0,0,0,0,0,0,0,0,0,0.0023,0.0024,0.004,0.004,0.0039,0.0004,0.0003,0.0003,-0.0077,-0.0079,-0.0081,-0.0082,-0.0177,-0.0178,-0.0179,0,0,0,0,0,0,0,0,0,0,0,0,0,0.0013,0.0024,0.004,-0.0005,-0.0009,0.0004,0.0003,0.0003,-0.0076,-0.0079,-0.0081,-0.0083,-0.0176,-0.0178,-0.0179,-0.014,0,0,-0.0184,-0.0185,0,0,0,0,0,0,0,0,0.0013,0.0013,0.0002,-0.0001,-0.0006,-0.0034,-0.0038,-0.0048,-0.0076,-0.0051,-0.0082,-0.0084,-0.0133,-0.0138,-0.0139,-0.0145,-0.0149,-0.0184,-0.0185,-0.0186,-0.0186,0,0,0,0,0,0,0,0.0014,0.0014,0.0025,0.0002,-0.0003,-0.0029,-0.0033,-0.004,-0.0079,-0.0053,-0.0059,-0.0062,-0.0136,-0.0137,-0.0142,-0.015,-0.0184,-0.0185,-0.0186,-0.0187,-0.0322,-0.0324,0,0,0,0,0,0,0.0023,0.0016,0.0027,0.0024,-0.0002,-0.0027,-0.0031,-0.0023,-0.0078,-0.0088,-0.006,-0.0066,-0.0133,-0.014,-0.0146,-0.0226,-0.0186,-0.0187,-0.0188,-0.0319,-0.0322,-0.0325,0,0,0,0,0,0,0.0023,0.0025,0.0028,0.0018,0.0017,-0.0024,-0.0014,-0.0022,-0.0046,-0.0082,-0.0094,-0.0078,-0.0135,-0.0143,-0.0205,-0.0226,-0.0188,-0.0189,-0.0316,-0.032,-0.0324,-0.0307,0,0,0,0,0,0,0.0023,0.0026,0.0029,0.002,0.0018,0.0011,-0.0012,-0.0021,-0.0043,-0.0051,-0.01,-0.0111,-0.0138,-0.0203,-0.0206,-0.0227,-0.019,-0.0313,-0.0318,-0.0322,-0.0304,-0.031,-0.0315,0,0,0,0,0,0.0023,0.003,0.003,0.003,0.0026,0.0011,0.0007,-0.003,-0.0041,-0.0058,-0.0111,-0.011,-0.0238,-0.0205,-0.0209,-0.0231,-0.031,-0.0316,-0.0322,-0.0302,-0.0309,-0.0315,0,0,0,0,0,0,0.0015,0.0023,0.0022,0.0029,0.0013,-0.0004,-0.0017,-0.003,-0.0077,-0.0093,-0.0127,-0.0142,-0.0211,-0.0227,-0.019,-0.0294,-0.0279,-0.0286,-0.0263,-0.027,-0.0275,-0.0276,-0.0192,0,0,0,0,0,0.0023,0.0031,0.0028,0.0029,0.0026,0.0009,-0.0001,-0.0024,-0.0061,-0.0083,-0.0126,-0.0181,-0.0231,-0.0256,-0.0305,-0.0336,-0.0343,-0.0364,-0.0369,-0.0373,-0.0383,-0.0416,-0.0424,-0.0345,-0.0345,-0.0345,0,0,0.0019,0.0024,0.0027,0.0028,0.0017,-0.0002,-0.0005,-0.0026,-0.0059,-0.0084,-0.0155,-0.0197,-0.0248,-0.0311,-0.0341,-0.0326,-0.0398,-0.038,-0.0382,-0.0391,-0.0423,-0.043,-0.0436,-0.0349,-0.0348,-0.0347,0,0,0.0006,0.0023,0.0019,0.0009,-0.0007,-0.0016,-0.0022,-0.0051,-0.0084,-0.0141,-0.0183,-0.0243,-0.0309,-0.0356,-0.0383,-0.0443,-0.043,-0.0462,-0.0474,-0.0506,-0.0511,-0.0516,-0.0513,-0.0518,-0.0456,-0.0456,-0.0456,0,-0.0005,0.0002,0.0011,-0.0004,-0.0011,-0.0023,-0.0039,-0.007,-0.0127,-0.0153,-0.0179,-0.0298,-0.0336,-0.04,-0.0438,-0.045,-0.0455,-0.0432,-0.0507,-0.0513,-0.0518,-0.0514,-0.052,-0.0456,-0.0456,-0.0456,-0.0456,0,-0.0027,-0.0024,-0.0029,-0.0043,-0.0055,-0.0068,-0.0097,-0.0131,-0.0164,-0.0199,-0.0283,-0.0345,-0.0414,-0.0437,-0.0456,-0.0516,-0.0502,-0.0508,-0.0475,-0.0524,-0.0518,-0.0524,-0.0455,-0.0455,-0.0456,-0.0456,0,0,-0.006,-0.004,-0.0052,-0.0035,-0.0069,-0.0068,-0.0126,-0.0161,-0.0182,-0.027,-0.0309,-0.0416,-0.0443,-0.0479,-0.0506,-0.0537,-0.0572,-0.0538,-0.054,-0.0507,-0.0617,-0.057,-0.0571,-0.0582,-0.0584,-0.0585,-0.0588,0,-0.0085,-0.0072,-0.0083,-0.009,-0.0073,-0.0101,-0.0137,-0.0179,-0.0227,-0.0275,-0.035,-0.0404,-0.0458,-0.0475,-0.0529,-0.0562,-0.0592,-0.0569,-0.0601,-0.0602,-0.053,-0.0579,-0.0591,-0.0592,-0.0593,-0.0594,-0.0595,0,-0.012,-0.0091,-0.0079,-0.0051,-0.0052,-0.0076,-0.0098,-0.0131,-0.0208,-0.0247,-0.0331,-0.0386,-0.0468,-0.0491,-0.0594,-0.0575,-0.0607,-0.063,-0.0631,-0.06,-0.0567,-0.0545,-0.0606,-0.0605,-0.0604,-0.0603,-0.0603,0,-0.0097,-0.0096,-0.0062,-0.006,-0.0047,-0.0062,-0.0069,-0.0129,-0.0142,-0.0221,-0.0239,-0.0362,-0.0393,-0.0489,-0.0567,-0.058,-0.0649,-0.0665,-0.0653,-0.0647,-0.069,-0.0685,-0.0735,-0.0735,-0.0735,-0.0735,-0.0735,0,-0.0092,-0.0072,-0.0043,-0.0016,0.0005,-0.0011,-0.0014,-0.0044,-0.0091,-0.0101,-0.0211,-0.0238,-0.0394,-0.046,-0.055,-0.0615,-0.0641,-0.0666,-0.0657,-0.0683,-0.0677,-0.0692,-0.0687,-0.0735,-0.0735,-0.0735,-0.0735,0,-0.0062,-0.0043,0.0004,0.0027,0.0029,0.0048,0.0042,0.0041,-0.0002,-0.0017,-0.0036,-0.0141,-0.0229,-0.0361,-0.0484,-0.0555,-0.0635,-0.0643,-0.0633,-0.0622,-0.0616,-0.0611,-0.0648,-0.0646,-0.0645,-0.0644,-0.0644,0,-0.003,-0.0001,0.0045,0.0069,0.0078,0.0097,0.0106,0.0082,0.0082,0.0046,0.0049,-0.0034,-0.0119,-0.0245,-0.0396,-0.0552,-0.0574,-0.0605,-0.0662,-0.0625,-0.0613,-0.0609,-0.0606,-0.0642,-0.0641,-0.0641,-0.0641,0,0.0017,0.0023,0.0065,0.0117,0.0139,0.0172,0.0185,0.0193,0.0171,0.0148,0.0122,0.0025,-0.0056,-0.0214,-0.0317,-0.0438,-0.0594,-0.0594,-0.0599,-0.0653,-0.0618,-0.0606,-0.0604,-0.0637,-0.0637,-0.0638,-0.0638,0,0.0031,0.006,0.01,0.0139,0.018,0.0213,0.0228,0.0232,0.0234,0.0195,0.0195,0.008,0.0006,-0.015,-0.0255,-0.0365,-0.0413,-0.0458,-0.047,-0.0477,-0.044,-0.0372,-0.0315,0,0,0,0,0,0.0032,0.0057,0.0112,0.0155,0.0201,0.0213,0.0258,0.0266,0.0257,0.0256,0.0221,0.0141,-0.0021,-0.0094,-0.0195,-0.0257,-0.0444,-0.038,-0.0505,-0.0614,-0.0619,-0.0604,0,0,0,0,0,0,0.0027,0.0072,0.0108,0.015,0.0172,0.0215,0.0241,0.0248,0.0247,0.0232,0.0154,0.0111,-0.0044,0.0027,-0.0204,-0.0238,-0.0329,-0.0459,-0.0461,-0.0611,-0.0616,-0.0619,-0.0605,0,0,0,0,0]}]]